TimeCDT,TemperatureF,Dew PointF,Humidity,Sea Level PressureIn,VisibilityMPH,Wind Direction,Wind SpeedMPH,Gust SpeedMPH,PrecipitationIn,Events,Conditions,WindDirDegrees,DateUTC
12:53 AM,66.0,57.9,75,30.16,10.0,East,9.2,-,N/A,,Overcast,90,2013-08-04 05:53:00
1:53 AM,66.0,57.9,75,30.14,10.0,East,8.1,-,N/A,,Overcast,80,2013-08-04 06:53:00
2:53 AM,66.0,57.9,75,30.13,10.0,East,6.9,-,N/A,,Overcast,100,2013-08-04 07:53:00
3:53 AM,66.0,57.0,73,30.14,10.0,ESE,5.8,-,N/A,,Overcast,110,2013-08-04 08:53:00
4:53 AM,66.0,57.0,73,30.12,10.0,ESE,9.2,-,N/A,,Overcast,110,2013-08-04 09:53:00
5:53 AM,66.0,57.0,73,30.12,10.0,East,8.1,-,N/A,,Overcast,80,2013-08-04 10:53:00
6:45 AM,64.4,57.2,77,30.16,10.0,ENE,8.1,-,N/A,,Overcast,70,2013-08-04 11:45:00
6:53 AM,64.0,57.9,80,30.13,10.0,ENE,8.1,-,N/A,,Overcast,70,2013-08-04 11:53:00
7:26 AM,64.4,57.2,77,30.15,10.0,East,9.2,-,N/A,,Overcast,100,2013-08-04 12:26:00
7:53 AM,64.9,57.0,75,30.12,10.0,ESE,8.1,-,N/A,,Overcast,110,2013-08-04 12:53:00
8:53 AM,66.9,57.9,73,30.12,10.0,SE,10.4,-,N/A,,Scattered Clouds,130,2013-08-04 13:53:00
9:23 AM,64.4,60.8,88,30.15,10.0,SE,13.8,20.7,N/A,,Mostly Cloudy,130,2013-08-04 14:23:00
9:53 AM,64.9,61.0,87,30.13,10.0,SE,10.4,-,N/A,,Overcast,130,2013-08-04 14:53:00
10:01 AM,64.4,60.8,88,30.14,10.0,SE,12.7,-,N/A,,Overcast,130,2013-08-04 15:01:00
10:53 AM,66.9,63.0,87,30.11,10.0,SE,12.7,-,N/A,,Overcast,140,2013-08-04 15:53:00
11:53 AM,70.0,64.9,84,30.10,10.0,ESE,6.9,-,N/A,,Overcast,110,2013-08-04 16:53:00
12:01 PM,69.8,64.4,83,30.13,10.0,East,5.8,-,N/A,,Overcast,100,2013-08-04 17:01:00
12:53 PM,72.0,66.0,81,30.09,10.0,SSE,9.2,-,N/A,,Overcast,150,2013-08-04 17:53:00
1:44 PM,73.4,66.2,78,30.10,10.0,SSE,9.2,-,N/A,,Overcast,150,2013-08-04 18:44:00
1:53 PM,73.0,66.0,79,30.07,10.0,SE,9.2,-,N/A,,Overcast,140,2013-08-04 18:53:00
2:53 PM,77.0,66.9,71,30.05,10.0,SSE,6.9,-,N/A,,Overcast,150,2013-08-04 19:53:00
3:53 PM,77.0,69.1,76,30.04,10.0,ESE,12.7,-,N/A,,Mostly Cloudy,120,2013-08-04 20:53:00
3:55 PM,75.2,68.0,78,30.07,10.0,ESE,11.5,-,N/A,,Mostly Cloudy,110,2013-08-04 20:55:00
4:53 PM,78.1,69.1,74,30.02,10.0,SE,12.7,-,N/A,,Mostly Cloudy,140,2013-08-04 21:53:00
5:53 PM,78.1,69.1,74,30.00,10.0,SE,9.2,-,N/A,,Overcast,130,2013-08-04 22:53:00
6:26 PM,77.0,69.8,78,30.03,10.0,SE,9.2,-,N/A,,Overcast,130,2013-08-04 23:26:00
6:40 PM,77.0,69.8,78,30.03,10.0,SE,9.2,-,N/A,,Overcast,140,2013-08-04 23:40:00
6:53 PM,77.0,69.1,76,29.99,10.0,SE,6.9,-,N/A,,Overcast,140,2013-08-04 23:53:00
7:53 PM,75.9,69.1,79,29.99,10.0,SE,6.9,-,N/A,,Overcast,130,2013-08-05 00:53:00
8:53 PM,73.0,69.1,87,29.99,10.0,SE,4.6,-,N/A,,Partly Cloudy,130,2013-08-05 01:53:00
9:53 PM,71.1,69.1,93,30.01,10.0,SE,4.6,-,N/A,,Partly Cloudy,130,2013-08-05 02:53:00
10:13 PM,71.6,69.8,94,30.05,10.0,ESE,3.5,-,N/A,,Mostly Cloudy,120,2013-08-05 03:13:00
10:41 PM,71.6,69.8,94,30.04,10.0,SE,6.9,-,N/A,,Scattered Clouds,130,2013-08-05 03:41:00
10:53 PM,72.0,69.1,91,30.02,10.0,SE,8.1,-,N/A,,Mostly Cloudy,130,2013-08-05 03:53:00
11:02 PM,71.6,69.8,94,30.05,10.0,SE,6.9,-,N/A,,Mostly Cloudy,130,2013-08-05 04:02:00
11:11 PM,71.6,69.8,94,30.05,10.0,SE,5.8,-,N/A,,Mostly Cloudy,140,2013-08-05 04:11:00
11:53 PM,72.0,70.0,93,30.01,10.0,SE,6.9,-,N/A,,Overcast,140,2013-08-05 04:53:00